Location: Gaast
(52.9002°N, 5.8891°E)
Time: 00:13:08
(UTC+00:00)

Resurs 01 Rocket - Pass Details

Date: 18 November 2025
Orbit: 627 x 636 km, 97.7° (Epoch: 04 December)

Event Time Altitude Azimuth Distance (km) Brightness Sun altitude
Exits shadow 17:30:08 24° 44° (NE) 1,318 2.8 -16.6°
Drops below altitude 10° 17:32:59 10° 6° (N) 2,037 4.0 -17.0°
Sets 17:35:28 0° 354° (N) 2,949 5.0 -17.4°
